Wind_Speed
100 99 98 98 98 98 99 100 100 100 100 101 101 101 102 102 101 101 100 100 100 99 99 99 99 99 100 100 100 99 99 99 98 98 98 98 98 97 96 96 95 94
106 106 105 104 103 102 101 101 101 101 101 102 103 104 105 106 106 106 105 105 104 104 104 103 103 103 104 104 104 104 104 103 103 103 102 102 102 102 101 101 100 99
111 111 111 111 110 110 109 108 107 106 106 106 106 106 106 107 108 109 108 108 108 108 108 108 108 108 108 108 108 108 108 107 107 107 106 106 106 106 106 105 105 104
118 117 117 117 116 116 116 115 114 114 113 112 112 112 111 111 111 111 111 111 111 111 111 112 112 112 112 113 113 113 112 111 111 111 110 110 110 110 110 109 109 108
124 124 124 124 124 123 123 122 121 120 120 119 119 119 118 118 118 117 117 117 116 116 116 116 115 115 115 115 116 116 116 116 115 115 114 114 114 113 113 113 112 112
132 131 130 130 130 130 130 129 128 127 126 126 125 125 125 125 124 124 124 123 123 123 122 122 121 121 120 119 119 119 119 120 120 119 118 118 118 117 116 116 116 116
137 137 137 136 136 136 136 136 136 135 134 133 132 132 131 131 131 131 130 130 129 129 128 128 128 127 127 126 126 125 125 125 126 125 124 123 122 121 121 120 119 119
138 140 141 142 142 142 142 142 141 141 141 140 140 139 138 137 137 136 136 136 135 135 134 134 134 134 134 134 133 133 133 132 132 131 130 129 127 126 126 125 124 123
139 141 142 143 144 146 146 147 147 147 147 146 146 145 145 144 143 143 142 141 141 140 140 140 139 139 139 140 139 139 138 138 137 137 136 134 133 133 132 132 131 130
140 141 143 144 145 146 147 149 150 151 151 151 152 151 151 151 150 149 148 147 147 146 146 145 145 145 145 145 144 144 143 142 142 142 142 141 140 140 139 139 138 137
138 140 141 143 145 147 148 149 150 152 153 153 154 155 156 156 156 155 154 154 153 152 151 151 150 150 149 149 149 149 148 148 147 147 147 147 146 146 145 144 144 143
132 134 136 138 140 143 145 147 149 151 153 154 155 156 157 158 159 159 159 159 158 157 157 156 155 154 154 153 153 153 153 153 152 152 153 152 152 151 150 150 149 149
126 127 129 131 133 135 137 140 142 145 148 151 155 157 158 159 160 160 161 161 162 161 161 160 160 159 158 158 158 157 157 157 157 157 157 157 157 157 156 155 154 154
123 124 125 126 127 128 130 132 134 136 139 143 147 151 155 158 160 161 162 163 163 163 164 163 163 163 162 162 162 162 161 161 161 160 160 160 160 160 160 160 159 159
122 123 123 123 124 124 125 126 128 129 131 134 136 140 144 149 153 157 160 162 163 164 165 165 165 165 165 165 166 166 165 165 164 164 164 164 164 164 164 164 164 163
120 121 122 122 123 123 123 124 124 125 126 127 129 131 133 136 140 144 148 152 156 159 162 163 164 165 166 167 167 168 168 168 168 167 167 166 166 166 165 165 164 164
116 117 119 120 121 121 122 122 122 123 123 123 124 125 126 128 129 131 134 137 141 144 148 151 154 156 158 160 162 164 165 165 165 165 164 163 162 161 160 159 157 156
110 111 112 114 115 117 117 118 119 120 120 121 122 122 123 123 124 125 127 128 130 132 134 136 138 141 144 146 149 151 153 153 153 153 152 151 149 147 146 145 144 143
103 104 105 107 109 110 111 112 113 114 115 116 117 118 119 120 121 122 123 124 126 127 128 128 129 131 133 136 138 140 142 143 142 141 140 139 137 135 133 133 133 134
100 100 101 102 103 104 105 106 108 109 110 111 112 112 113 114 116 117 118 120 121 123 123 123 124 125 127 130 131 133 134 136 136 135 133 131 130 129 128 127 126 127
98 98 99 99 99 100 100 101 103 104 105 106 107 108 109 110 112 113 114 115 116 118 118 119 119 121 123 125 126 127 128 129 130 129 128 126 125 124 123 122 122 122
97 97 97 97 96 97 97 98 99 99 100 101 102 103 105 106 108 108 109 110 111 113 114 114 115 117 119 122 123 124 125 125 125 124 123 122 120 119 119 119 118 118
95 95 94 94 95 95 95 95 96 96 96 97 98 99 100 101 102 102 103 105 106 108 110 110 110 112 115 118 119 120 121 122 122 121 120 119 118 117 117 117 117 116
92 92 91 92 93 93 93 93 93 94 94 95 95 94 94 95 96 97 98 100 102 103 105 106 106 107 111 114 115 116 118 118 118 117 117 116 115 115 115 116 116 115
89 89 89 90 90 91 91 91 92 93 93 93 92 92 91 91 93 93 93 95 98 100 101 102 103 104 106 109 110 111 113 114 113 113 112 112 113 113 113 113 113 113
88 88 88 89 89 89 90 91 91 91 91 91 91 91 90 90 90 91 91 93 95 97 98 99 100 100 102 104 106 106 108 109 109 109 108 108 109 109 109 109 109 110
Wind_Direction
258 259 260 261 261 262 262 262 262 261 260 259 258 258 258 258 258 258 259 259 258 258 258 259 259 259 260 260 260 261 261 261 261 261 261 262 262 262 262 261 260 260
256 256 256 257 257 258 259 259 260 260 260 260 259 258 258 258 258 258 258 258 258 258 258 258 258 258 259 260 260 260 261 261 261 261 261 261 262 262 262 262 261 261
254 254 254 254 255 255 255 256 256 257 258 258 258 258 258 259 259 258 258 257 257 257 258 258 258 258 259 259 260 261 261 261 261 262 262 262 261 261 261 261 261 261
254 253 253 253 253 253 254 254 254 254 254 255 255 256 256 257 257 257 257 257 257 257 257 258 258 258 258 258 259 259 260 260 261 261 262 262 262 262 262 262 262 261
254 254 254 254 253 253 253 253 253 253 253 253 253 254 254 254 255 255 255 256 256 256 257 257 257 257 257 257 258 258 258 259 259 260 260 261 262 262 262 263 263 262
256 255 255 254 254 254 254 254 253 253 253 253 253 253 253 253 253 254 254 254 255 255 255 256 256 256 256 257 257 257 257 258 258 258 259 259 259 260 261 261 262 262
257 256 256 255 255 255 254 254 254 254 254 253 253 253 253 253 253 253 253 254 254 254 255 255 255 256 256 256 256 256 256 257 257 258 258 258 258 259 259 260 260 260
257 257 257 256 256 256 255 255 255 255 255 255 254 254 254 254 254 254 254 254 254 254 255 255 255 256 256 257 257 257 257 257 257 258 258 259 259 259 260 260 260 260
258 257 257 257 257 256 256 256 256 256 256 256 255 255 255 255 255 255 255 255 255 255 255 256 256 257 257 258 258 258 258 258 258 258 259 259 259 260 261 261 262 262
259 258 258 257 257 257 257 257 257 257 257 256 256 256 256 256 256 256 256 256 256 256 256 257 257 257 258 258 259 259 259 259 259 259 259 260 260 260 261 262 263 263
261 260 260 259 258 257 257 257 257 257 257 257 257 257 257 257 257 257 257 257 257 257 257 257 257 258 258 258 259 259 259 259 259 260 260 260 260 261 261 262 263 263
263 263 262 262 261 260 259 258 258 257 257 257 258 258 258 258 258 258 258 258 258 258 258 258 258 258 258 258 259 259 259 259 259 260 260 260 261 261 261 262 262 263
266 265 264 264 263 262 262 261 260 259 258 258 257 257 258 258 258 258 258 259 259 259 259 259 259 259 259 259 259 259 259 259 259 260 260 261 261 262 262 262 262 262
267 267 266 266 265 264 264 263 262 261 260 259 258 258 257 257 258 258 258 258 259 259 259 259 259 260 260 260 260 260 260 260 260 260 260 261 261 262 262 262 262 263
267 267 267 266 266 266 265 265 264 264 263 262 261 260 259 259 258 258 258 258 259 259 259 259 260 260 260 260 260 261 261 260 260 261 261 261 261 262 262 263 263 263
267 267 267 267 266 266 266 266 266 265 265 264 264 263 262 261 261 260 260 260 260 260 260 260 260 260 260 261 261 261 261 261 261 261 261 261 262 262 263 263 264 264
267 267 267 267 267 267 267 267 266 266 266 266 265 265 264 264 263 263 262 262 262 261 261 261 261 261 261 262 262 262 262 262 263 262 262 262 262 262 263 263 263 264
268 268 268 268 267 267 267 267 267 267 266 266 266 266 265 265 265 265 264 264 263 263 262 262 262 262 262 262 262 263 263 263 263 263 263 263 262 262 262 262 262 262
270 269 268 268 268 267 267 267 267 267 267 267 266 266 266 266 266 266 265 265 265 264 263 263 262 262 262 262 263 263 263 263 263 263 263 263 263 262 262 261 261 262
272 271 270 269 268 268 268 267 267 267 267 267 266 266 266 266 266 266 265 265 265 265 265 264 264 264 264 263 263 263 264 264 264 264 264 264 264 263 263 262 261 261
274 273 272 271 271 270 269 268 268 267 267 267 266 266 266 266 265 265 265 265 265 265 265 265 265 265 265 264 264 264 264 264 265 265 265 265 264 264 264 263 262 262
275 274 274 273 272 272 271 270 269 268 268 267 267 266 266 265 265 265 265 265 265 265 265 265 264 264 264 264 264 264 264 264 265 265 265 265 265 264 264 264 263 262
275 274 274 274 274 273 272 272 271 270 270 269 267 267 266 266 266 266 266 266 266 265 265 265 264 264 264 263 263 264 264 264 264 264 264 264 264 264 264 263 263 262
274 274 274 274 274 274 273 273 273 272 271 270 269 269 268 268 268 267 267 266 266 265 265 264 264 263 263 263 263 263 263 263 263 263 263 263 263 263 262 262 262 262
274 274 274 274 274 274 274 273 273 272 272 271 271 271 270 269 269 268 268 267 266 266 265 264 264 263 263 263 263 263 263 263 263 263 263 263 262 262 262 261 261 261
275 275 274 274 274 274 273 273 272 272 272 272 272 271 271 270 270 269 268 268 267 267 266 265 265 264 264 264 264 264 264 264 264 264 263 262 262 262 261 261 261 261
Height
10550 10550 10549 10549 10549 10549 10549 10549 10549 10550 10550 10550 10550 10550 10550 10550 10550 10551 10551 10552 10553 10553 10554 10554 10555 10555 10555 10556 10557 10558 10558 10559 10559 10559 10560 10562 10563 10564 10567 10569 10571 10573
10534 10534 10533 10533 10533 10533 10533 10533 10532 10533 10533 10533 10534 10534 10534 10534 10535 10535 10535 10536 10536 10537 10538 10539 10540 10540 10541 10541 10542 10543 10543 10544 10544 10545 10547 10548 10547 10549 10551 10553 10555 10558
10517 10516 10516 10516 10516 10515 10515 10516 10515 10516 10516 10516 10517 10517 10517 10517 10518 10518 10519 10519 10520 10520 10521 10522 10523 10525 10525 10526 10526 10527 10527 10528 10529 10529 10532 10533 10533 10533 10535 10536 10539 10541
10499 10499 10498 10497 10497 10497 10496 10497 10497 10497 10498 10499 10499 10500 10500 10500 10500 10501 10501 10502 10502 10503 10504 10505 10506 10507 10509 10510 10510 10511 10511 10512 10513 10513 10515 10516 10516 10517 10519 10520 10523 10525
10480 10480 10480 10480 10479 10479 10478 10478 10478 10479 10479 10480 10480 10481 10481 10482 10483 10483 10484 10484 10485 10485 10486 10486 10487 10488 10490 10492 10493 10493 10494 10495 10496 10497 10499 10500 10499 10501 10502 10503 10506 10508
10460 10461 10461 10461 10461 10460 10460 10460 10460 10460 10460 10460 10461 10461 10462 10463 10463 10464 10465 10466 10467 10468 10469 10469 10469 10470 10471 10473 10474 10475 10476 10477 10478 10480 10482 10483 10483 10484 10486 10487 10489 10491
10440 10440 10441 10441 10441 10441 10440 10440 10440 10440 10441 10441 10441 10442 10442 10443 10444 10445 10446 10447 10447 10448 10450 10450 10451 10452 10452 10454 10455 10457 10457 10458 10459 10461 10463 10464 10465 10466 10467 10469 10472 10474
10418 10419 10419 10420 10420 10420 10420 10420 10420 10420 10421 10421 10421 10421 10422 10423 10424 10425 10426 10427 10428 10429 10430 10431 10432 10433 10434 10434 10436 10438 10439 10439 10440 10442 10444 10446 10447 10448 10449 10450 10453 10456
10396 10396 10396 10397 10398 10398 10399 10399 10399 10400 10400 10401 10401 10401 10401 10402 10404 10405 10406 10407 10408 10409 10410 10411 10413 10414 10415 10415 10416 10418 10419 10420 10421 10422 10425 10427 10428 10430 10430 10431 10434 10437
10373 10373 10373 10373 10374 10375 10376 10377 10377 10378 10379 10380 10380 10381 10381 10381 10382 10384 10385 10386 10387 10388 10390 10391 10393 10394 10395 10396 10396 10397 10399 10401 10401 10402 10404 10406 10409 10410 10411 10412 10414 10417
10350 10350 10350 10350 10351 10352 10353 10354 10355 10356 10357 10358 10359 10359 10359 10359 10360 10361 10362 10364 10366 10367 10368 10370 10371 10373 10375 10376 10376 10376 10378 10380 10381 10381 10382 10385 10387 10389 10391 10392 10394 10396
10328 10328 10328 10328 10329 10329 10330 10331 10332 10333 10334 10334 10335 10336 10336 10337 10338 10339 10340 10341 10342 10343 10345 10347 10349 10351 10352 10354 10354 10354 10356 10358 10359 10360 10360 10362 10364 10367 10369 10372 10374 10376
10307 10307 10306 10306 10306 10306 10307 10307 10308 10309 10310 10310 10310 10311 10311 10312 10314 10315 10316 10317 10318 10319 10320 10322 10325 10327 10329 10330 10331 10331 10332 10334 10336 10338 10339 10340 10341 10343 10346 10349 10352 10355
10286 10285 10285 10284 10284 10283 10283 10283 10284 10284 10285 10286 10286 10286 10287 10288 10289 10291 10292 10293 10293 10295 10296 10298 10300 10303 10305 10305 10305 10306 10308 10310 10312 10314 10316 10318 10319 10320 10322 10324 10328 10331
10266 10265 10264 10263 10262 10262 10261 10261 10261 10261 10262 10262 10263 10263 10264 10265 10266 10267 10268 10269 10270 10271 10273 10275 10277 10279 10281 10279 10279 10280 10282 10284 10286 10289 10291 10293 10295 10298 10299 10301 10304 10306
10247 10245 10244 10243 10242 10242 10242 10241 10241 10241 10241 10241 10241 10241 10242 10243 10245 10246 10246 10246 10248 10249 10250 10252 10254 10255 10256 10255 10253 10253 10254 10256 10259 10262 10266 10268 10271 10274 10277 10278 10279 10280
10228 10227 10226 10225 10223 10222 10222 10222 10221 10221 10221 10221 10220 10220 10220 10221 10223 10224 10225 10225 10225 10227 10228 10229 10230 10231 10231 10229 10227 10226 10225 10227 10230 10234 10238 10243 10248 10252 10255 10257 10258 10258
10211 10211 10209 10207 10204 10203 10203 10203 10202 10202 10202 10201 10201 10201 10201 10202 10202 10202 10203 10204 10203 10204 10206 10207 10208 10209 10207 10204 10202 10200 10199 10199 10202 10207 10212 10217 10224 10230 10234 10237 10238 10238
10193 10193 10192 10189 10187 10185 10185 10185 10184 10184 10183 10182 10182 10183 10183 10183 10184 10183 10183 10183 10181 10181 10183 10185 10188 10189 10185 10181 10179 10178 10176 10175 10177 10184 10190 10196 10202 10208 10213 10218 10220 10220
10174 10174 10173 10171 10169 10168 10168 10168 10167 10166 10165 10163 10163 10165 10165 10165 10165 10164 10162 10162 10160 10159 10161 10164 10168 10168 10164 10160 10159 10158 10157 10155 10156 10162 10169 10176 10182 10187 10191 10196 10200 10201
10155 10154 10152 10151 10151 10150 10150 10149 10148 10147 10147 10146 10146 10147 10147 10146 10144 10144 10144 10144 10143 10142 10142 10146 10149 10147 10142 10139 10138 10137 10137 10136 10138 10142 10149 10155 10162 10167 10170 10174 10178 10180
10136 10135 10134 10133 10133 10132 10131 10130 10129 10129 10128 10128 10129 10129 10127 10126 10126 10127 10128 10128 10127 10125 10124 10127 10132 10129 10122 10118 10117 10117 10116 10117 10120 10124 10130 10136 10142 10147 10149 10151 10155 10158
10119 10118 10118 10117 10116 10114 10113 10112 10111 10111 10111 10109 10110 10112 10111 10111 10111 10113 10113 10111 10110 10108 10105 10106 10112 10110 10102 10097 10098 10098 10097 10098 10101 10106 10111 10117 10124 10128 10129 10129 10132 10136
10104 10104 10104 10102 10100 10097 10097 10096 10095 10094 10093 10091 10092 10096 10097 10096 10095 10096 10097 10093 10090 10090 10087 10086 10091 10091 10083 10078 10079 10079 10078 10079 10084 10088 10093 10099 10104 10107 10109 10109 10112 10116
10091 10090 10089 10087 10085 10083 10082 10081 10079 10077 10076 10076 10077 10079 10081 10080 10078 10078 10080 10077 10070 10069 10069 10068 10070 10072 10066 10060 10062 10063 10061 10062 10067 10072 10077 10081 10083 10086 10089 10092 10096 10099
10077 10076 10074 10072 10071 10070 10067 10064 10063 10063 10062 10062 10062 10062 10063 10064 10063 10061 10062 10060 10053 10050 10051 10050 10051 10054 10051 10046 10047 10048 10046 10045 10049 10054 10059 10063 10065 10067 10072 10076 10079 10081